Time,TemperatureF,DewpointF,PressureIn,WindDirection,WindDirectionDegrees,WindSpeedMPH,WindSpeedGustMPH,Humidity,HourlyPrecipIn,Conditions,Clouds,dailyrainin,SoftwareType,DateUTC
2013-11-27 00:00:00,16.4,9.6,30.62,North,355,0.0,0.0,74,0.00,,---,0.00,VWS V14.01,2013-11-27 06:00:00,
2013-11-27 00:04:00,16.3,9.5,30.62,North,355,0.0,1.0,74,0.00,,---,0.00,VWS V14.01,2013-11-27 06:04:00,
2013-11-27 00:05:00,16.3,9.5,30.62,North,355,0.0,2.0,74,0.00,,---,0.00,VWS V14.01,2013-11-27 06:05:00,
2013-11-27 00:09:00,16.1,9.3,30.62,NNW,336,0.0,3.0,74,0.00,,---,0.00,VWS V14.01,2013-11-27 06:09:00,
2013-11-27 00:10:00,16.1,9.6,30.62,NNW,336,0.0,3.0,75,0.00,,---,0.00,VWS V14.01,2013-11-27 06:10:00,
2013-11-27 00:14:00,15.8,9.3,30.62,NNW,336,0.0,2.0,75,0.00,,---,0.00,VWS V14.01,2013-11-27 06:14:00,
2013-11-27 00:15:00,15.8,9.3,30.62,NNW,336,0.0,2.0,75,0.00,,---,0.00,VWS V14.01,2013-11-27 06:15:00,
2013-11-27 00:19:00,15.5,9.0,30.62,NNW,336,0.0,2.0,75,0.00,,---,0.00,VWS V14.01,2013-11-27 06:19:00,
2013-11-27 00:20:00,15.4,8.9,30.62,NNW,336,0.0,2.0,75,0.00,,---,0.00,VWS V14.01,2013-11-27 06:20:00,
2013-11-27 00:24:00,15.0,8.8,30.62,NNW,336,0.0,1.0,76,0.00,,---,0.00,VWS V14.01,2013-11-27 06:24:00,
2013-11-27 00:25:00,14.9,8.7,30.62,NNW,336,1.0,1.0,76,0.00,,---,0.00,VWS V14.01,2013-11-27 06:25:00,
2013-11-27 00:29:00,14.6,8.4,30.62,NNW,336,0.0,1.0,76,0.00,,---,0.00,VWS V14.01,2013-11-27 06:29:00,
2013-11-27 00:30:00,14.6,8.4,30.62,NNW,336,0.0,1.0,76,0.00,,---,0.00,VWS V14.01,2013-11-27 06:30:00,
2013-11-27 00:34:00,14.4,8.5,30.62,NNW,336,0.0,2.0,77,0.00,,---,0.00,VWS V14.01,2013-11-27 06:34:00,
2013-11-27 00:35:00,14.3,8.4,30.62,NNW,336,0.0,2.0,77,0.00,,---,0.00,VWS V14.01,2013-11-27 06:35:00,
2013-11-27 00:39:00,14.0,8.4,30.62,NNW,336,0.0,2.0,78,0.00,,---,0.00,VWS V14.01,2013-11-27 06:39:00,
2013-11-27 00:40:00,14.0,8.1,30.62,NNW,336,0.0,2.0,77,0.00,,---,0.00,VWS V14.01,2013-11-27 06:40:00,
2013-11-27 00:44:00,13.8,8.2,30.61,NNW,336,0.0,2.0,78,0.00,,---,0.00,VWS V14.01,2013-11-27 06:44:00,
2013-11-27 00:45:00,13.7,8.1,30.61,NNW,336,0.0,2.0,78,0.00,,---,0.00,VWS V14.01,2013-11-27 06:45:00,
2013-11-27 00:49:00,13.6,8.0,30.62,NNW,336,0.0,1.0,78,0.00,,---,0.00,VWS V14.01,2013-11-27 06:49:00,
2013-11-27 00:50:00,13.5,8.2,30.62,NNW,336,0.0,1.0,79,0.00,,---,0.00,VWS V14.01,2013-11-27 06:50:00,
2013-11-27 00:54:00,13.4,8.1,30.62,NNW,336,0.0,1.0,79,0.00,,---,0.00,VWS V14.01,2013-11-27 06:54:00,
2013-11-27 00:55:00,13.4,8.1,30.62,NNW,336,0.0,1.0,79,0.00,,---,0.00,VWS V14.01,2013-11-27 06:55:00,
2013-11-27 00:59:00,13.2,8.2,30.61,NNW,336,0.0,0.0,80,0.00,,---,0.00,VWS V14.01,2013-11-27 06:59:00,
2013-11-27 01:00:00,13.2,8.2,30.61,NNW,336,0.0,0.0,80,0.00,,---,0.00,VWS V14.01,2013-11-27 07:00:00,
2013-11-27 01:04:00,13.1,8.1,30.62,NNW,336,0.0,0.0,80,0.00,,---,0.00,VWS V14.01,2013-11-27 07:04:00,
2013-11-27 01:05:00,13.1,8.1,30.62,NNW,336,0.0,0.0,80,0.00,,---,0.00,VWS V14.01,2013-11-27 07:05:00,
2013-11-27 01:09:00,13.0,8.0,30.62,NNW,336,0.0,1.0,80,0.00,,---,0.00,VWS V14.01,2013-11-27 07:09:00,
2013-11-27 01:10:00,13.0,8.3,30.62,NNW,336,0.0,1.0,81,0.00,,---,0.00,VWS V14.01,2013-11-27 07:10:00,
2013-11-27 01:14:00,12.9,8.2,30.61,NNW,336,0.0,0.0,81,0.00,,---,0.00,VWS V14.01,2013-11-27 07:14:00,
2013-11-27 01:15:00,12.9,8.2,30.61,NNW,336,0.0,0.0,81,0.00,,---,0.00,VWS V14.01,2013-11-27 07:15:00,
2013-11-27 01:19:00,12.8,8.1,30.61,NNW,336,0.0,0.0,81,0.00,,---,0.00,VWS V14.01,2013-11-27 07:19:00,
2013-11-27 01:20:00,12.8,8.1,30.61,NNW,336,0.0,0.0,81,0.00,,---,0.00,VWS V14.01,2013-11-27 07:20:00,
2013-11-27 01:24:00,12.9,8.2,30.61,NNW,336,0.0,0.0,81,0.00,,---,0.00,VWS V14.01,2013-11-27 07:24:00,
2013-11-27 01:25:00,12.9,8.2,30.61,NNW,336,0.0,0.0,81,0.00,,---,0.00,VWS V14.01,2013-11-27 07:25:00,
2013-11-27 01:30:00,12.9,8.2,30.61,NNW,336,0.0,0.0,81,0.00,,---,0.00,VWS V14.01,2013-11-27 07:30:00,
2013-11-27 01:35:00,12.9,8.2,30.61,NNW,336,0.0,0.0,81,0.00,,---,0.00,VWS V14.01,2013-11-27 07:35:00,
2013-11-27 01:40:00,12.9,8.2,30.61,NNW,336,0.0,0.0,81,0.00,,---,0.00,VWS V14.01,2013-11-27 07:40:00,
2013-11-27 01:45:00,12.8,8.1,30.61,NNW,336,0.0,0.0,81,0.00,,---,0.00,VWS V14.01,2013-11-27 07:45:00,
2013-11-27 01:50:00,12.7,8.0,30.61,NNW,336,0.0,0.0,81,0.00,,---,0.00,VWS V14.01,2013-11-27 07:50:00,
2013-11-27 01:55:00,12.6,8.2,30.61,NNW,336,0.0,0.0,82,0.00,,---,0.00,VWS V14.01,2013-11-27 07:55:00,
2013-11-27 02:00:00,12.7,8.3,30.61,NNW,336,0.0,0.0,82,0.00,,---,0.00,VWS V14.01,2013-11-27 08:00:00,
2013-11-27 02:05:00,12.8,8.4,30.61,NNW,336,0.0,0.0,82,0.00,,---,0.00,VWS V14.01,2013-11-27 08:05:00,
2013-11-27 02:10:00,12.8,8.4,30.61,NNW,336,0.0,0.0,82,0.00,,---,0.00,VWS V14.01,2013-11-27 08:10:00,
2013-11-27 02:15:00,12.7,8.3,30.61,NNW,336,0.0,0.0,82,0.00,,---,0.00,VWS V14.01,2013-11-27 08:15:00,
2013-11-27 02:20:00,12.6,8.2,30.61,NNW,336,0.0,0.0,82,0.00,,---,0.00,VWS V14.01,2013-11-27 08:20:00,
2013-11-27 02:25:00,12.6,8.2,30.61,NNW,336,0.0,1.0,82,0.00,,---,0.00,VWS V14.01,2013-11-27 08:25:00,
2013-11-27 02:30:00,12.6,8.2,30.61,NNW,336,0.0,0.0,82,0.00,,---,0.00,VWS V14.01,2013-11-27 08:30:00,
2013-11-27 02:35:00,12.5,8.1,30.61,NNW,336,0.0,0.0,82,0.00,,---,0.00,VWS V14.01,2013-11-27 08:35:00,
2013-11-27 02:40:00,12.3,7.9,30.61,NNW,336,0.0,0.0,82,0.00,,---,0.00,VWS V14.01,2013-11-27 08:40:00,
2013-11-27 02:45:00,12.2,7.8,30.61,NNW,336,0.0,0.0,82,0.00,,---,0.00,VWS V14.01,2013-11-27 08:45:00,
2013-11-27 02:50:00,12.1,7.9,30.61,NNW,336,0.0,0.0,83,0.00,,---,0.00,VWS V14.01,2013-11-27 08:50:00,
2013-11-27 02:55:00,12.1,7.9,30.61,NNW,336,0.0,0.0,83,0.00,,---,0.00,VWS V14.01,2013-11-27 08:55:00,
2013-11-27 03:00:00,12.1,7.9,30.61,NNW,336,0.0,0.0,83,0.00,,---,0.00,VWS V14.01,2013-11-27 09:00:00,
2013-11-27 03:05:00,12.1,7.9,30.62,NNW,336,0.0,0.0,83,0.00,,---,0.00,VWS V14.01,2013-11-27 09:05:00,
2013-11-27 03:10:00,12.0,7.8,30.62,NNW,336,0.0,0.0,83,0.00,,---,0.00,VWS V14.01,2013-11-27 09:10:00,
2013-11-27 03:15:00,11.9,7.7,30.61,NNW,336,0.0,0.0,83,0.00,,---,0.00,VWS V14.01,2013-11-27 09:15:00,
2013-11-27 03:20:00,11.8,7.9,30.62,NNW,336,0.0,0.0,84,0.00,,---,0.00,VWS V14.01,2013-11-27 09:20:00,
2013-11-27 03:25:00,11.8,7.9,30.61,NNW,336,0.0,0.0,84,0.00,,---,0.00,VWS V14.01,2013-11-27 09:25:00,
2013-11-27 03:30:00,11.7,7.8,30.61,NNW,336,0.0,0.0,84,0.00,,---,0.00,VWS V14.01,2013-11-27 09:30:00,
2013-11-27 03:35:00,11.6,7.7,30.62,NNW,336,0.0,1.0,84,0.00,,---,0.00,VWS V14.01,2013-11-27 09:35:00,
2013-11-27 03:40:00,11.4,7.5,30.62,NNW,336,0.0,1.0,84,0.00,,---,0.00,VWS V14.01,2013-11-27 09:40:00,
2013-11-27 03:45:00,11.2,7.3,30.61,NNW,336,0.0,0.0,84,0.00,,---,0.00,VWS V14.01,2013-11-27 09:45:00,
2013-11-27 03:50:00,10.9,7.0,30.61,NNW,336,0.0,0.0,84,0.00,,---,0.00,VWS V14.01,2013-11-27 09:50:00,
2013-11-27 03:55:00,10.8,6.9,30.61,NNW,336,0.0,0.0,84,0.00,,---,0.00,VWS V14.01,2013-11-27 09:55:00,
2013-11-27 04:00:00,10.6,6.7,30.61,NNW,336,0.0,0.0,84,0.00,,---,0.00,VWS V14.01,2013-11-27 10:00:00,
2013-11-27 04:05:00,10.5,6.6,30.61,NNW,336,0.0,0.0,84,0.00,,---,0.00,VWS V14.01,2013-11-27 10:05:00,
2013-11-27 04:10:00,10.4,6.8,30.61,NNW,336,0.0,0.0,85,0.00,,---,0.00,VWS V14.01,2013-11-27 10:10:00,
2013-11-27 04:15:00,10.4,6.8,30.61,NNW,336,0.0,0.0,85,0.00,,---,0.00,VWS V14.01,2013-11-27 10:15:00,
2013-11-27 04:20:00,10.4,6.8,30.61,NNW,336,0.0,0.0,85,0.00,,---,0.00,VWS V14.01,2013-11-27 10:20:00,
2013-11-27 04:25:00,10.3,6.7,30.61,NNW,336,0.0,0.0,85,0.00,,---,0.00,VWS V14.01,2013-11-27 10:25:00,
2013-11-27 04:30:00,10.2,6.6,30.60,NNW,336,0.0,0.0,85,0.00,,---,0.00,VWS V14.01,2013-11-27 10:30:00,
2013-11-27 04:35:00,10.1,6.5,30.60,NNW,336,0.0,0.0,85,0.00,,---,0.00,VWS V14.01,2013-11-27 10:35:00,
2013-11-27 04:40:00,10.1,6.5,30.60,NNW,336,0.0,0.0,85,0.00,,---,0.00,VWS V14.01,2013-11-27 10:40:00,
2013-11-27 04:45:00,10.0,6.7,30.61,NNW,336,0.0,0.0,86,0.00,,---,0.00,VWS V14.01,2013-11-27 10:45:00,
2013-11-27 04:50:00,10.1,6.8,30.60,NNW,336,0.0,0.0,86,0.00,,---,0.00,VWS V14.01,2013-11-27 10:50:00,
2013-11-27 04:55:00,10.0,6.7,30.61,NNW,336,0.0,0.0,86,0.00,,---,0.00,VWS V14.01,2013-11-27 10:55:00,
2013-11-27 05:00:00,10.0,6.7,30.61,NNW,336,0.0,0.0,86,0.00,,---,0.00,VWS V14.01,2013-11-27 11:00:00,
2013-11-27 05:05:00,10.0,6.7,30.61,NNW,336,0.0,0.0,86,0.00,,---,0.00,VWS V14.01,2013-11-27 11:05:00,
2013-11-27 05:10:00,9.9,6.6,30.61,NNW,336,0.0,1.0,86,0.00,,---,0.00,VWS V14.01,2013-11-27 11:10:00,
2013-11-27 05:15:00,9.8,6.5,30.61,NNW,336,0.0,0.0,86,0.00,,---,0.00,VWS V14.01,2013-11-27 11:15:00,
2013-11-27 05:20:00,9.8,6.5,30.61,NNW,336,0.0,0.0,86,0.00,,---,0.00,VWS V14.01,2013-11-27 11:20:00,
2013-11-27 05:25:00,9.8,6.5,30.61,NNW,336,0.0,2.0,86,0.00,,---,0.00,VWS V14.01,2013-11-27 11:25:00,
2013-11-27 05:30:00,9.7,6.4,30.61,NNW,336,0.0,0.0,86,0.00,,---,0.00,VWS V14.01,2013-11-27 11:30:00,
2013-11-27 05:35:00,9.6,6.3,30.61,NNW,336,0.0,0.0,86,0.00,,---,0.00,VWS V14.01,2013-11-27 11:35:00,
2013-11-27 05:40:00,9.5,6.2,30.61,NNW,336,0.0,0.0,86,0.00,,---,0.00,VWS V14.01,2013-11-27 11:40:00,
2013-11-27 05:45:00,9.4,6.1,30.62,NNW,336,0.0,0.0,86,0.00,,---,0.00,VWS V14.01,2013-11-27 11:45:00,
2013-11-27 05:50:00,9.5,6.4,30.62,NNW,336,2.0,2.0,87,0.00,,---,0.00,VWS V14.01,2013-11-27 11:50:00,
2013-11-27 05:55:00,9.5,6.4,30.61,NNW,336,0.0,2.0,87,0.00,,---,0.00,VWS V14.01,2013-11-27 11:55:00,
2013-11-27 06:00:00,9.5,6.2,30.61,NNW,336,0.0,2.0,86,0.00,,---,0.00,VWS V14.01,2013-11-27 12:00:00,
2013-11-27 06:05:00,9.5,6.2,30.61,NNW,336,0.0,0.0,86,0.00,,---,0.00,VWS V14.01,2013-11-27 12:05:00,
2013-11-27 06:10:00,9.5,6.2,30.61,NNW,336,0.0,0.0,86,0.00,,---,0.00,VWS V14.01,2013-11-27 12:10:00,
2013-11-27 06:15:00,9.5,6.2,30.61,NNW,336,0.0,0.0,86,0.00,,---,0.00,VWS V14.01,2013-11-27 12:15:00,
2013-11-27 06:20:00,9.6,6.5,30.60,NNW,336,0.0,0.0,87,0.00,,---,0.00,VWS V14.01,2013-11-27 12:20:00,
2013-11-27 06:25:00,9.8,6.7,30.61,NNW,336,0.0,0.0,87,0.00,,---,0.00,VWS V14.01,2013-11-27 12:25:00,
2013-11-27 06:30:00,9.8,6.5,30.61,NNW,336,0.0,0.0,86,0.00,,---,0.00,VWS V14.01,2013-11-27 12:30:00,
2013-11-27 06:35:00,9.8,6.5,30.60,NNW,336,0.0,0.0,86,0.00,,---,0.00,VWS V14.01,2013-11-27 12:35:00,
2013-11-27 06:40:00,9.7,6.4,30.59,NNW,336,0.0,0.0,86,0.00,,---,0.00,VWS V14.01,2013-11-27 12:40:00,
2013-11-27 06:45:00,9.5,6.2,30.59,NNW,336,0.0,1.0,86,0.00,,---,0.00,VWS V14.01,2013-11-27 12:45:00,
2013-11-27 06:50:00,9.4,6.1,30.59,NNW,336,0.0,1.0,86,0.00,,---,0.00,VWS V14.01,2013-11-27 12:50:00,
2013-11-27 06:55:00,9.3,6.0,30.60,NNW,336,0.0,0.0,86,0.00,,---,0.00,VWS V14.01,2013-11-27 12:55:00,
2013-11-27 07:00:00,9.2,5.9,30.60,NNW,336,0.0,0.0,86,0.00,,---,0.00,VWS V14.01,2013-11-27 13:00:00,
2013-11-27 07:05:00,9.1,5.8,30.60,NNW,336,0.0,0.0,86,0.00,,---,0.00,VWS V14.01,2013-11-27 13:05:00,
2013-11-27 07:10:00,9.0,5.7,30.61,NNW,336,0.0,0.0,86,0.00,,---,0.00,VWS V14.01,2013-11-27 13:10:00,
2013-11-27 07:15:00,8.9,5.6,30.61,NNW,336,0.0,0.0,86,0.00,,---,0.00,VWS V14.01,2013-11-27 13:15:00,
2013-11-27 07:20:00,8.9,5.6,30.60,NNW,336,0.0,0.0,86,0.00,,---,0.00,VWS V14.01,2013-11-27 13:20:00,
2013-11-27 07:25:00,8.8,5.7,30.60,NNW,336,0.0,0.0,87,0.00,,---,0.00,VWS V14.01,2013-11-27 13:25:00,
2013-11-27 07:30:00,8.7,5.6,30.60,NNW,336,0.0,0.0,87,0.00,,---,0.00,VWS V14.01,2013-11-27 13:30:00,
2013-11-27 07:35:00,8.7,5.6,30.59,NNW,336,1.0,1.0,87,0.00,,---,0.00,VWS V14.01,2013-11-27 13:35:00,
2013-11-27 07:40:00,8.7,5.6,30.59,NNW,336,0.0,1.0,87,0.00,,---,0.00,VWS V14.01,2013-11-27 13:40:00,
2013-11-27 07:45:00,8.7,5.9,30.60,NNW,336,0.0,0.0,88,0.00,,---,0.00,VWS V14.01,2013-11-27 13:45:00,
2013-11-27 07:50:00,8.8,6.0,30.60,NNW,336,0.0,0.0,88,0.00,,---,0.00,VWS V14.01,2013-11-27 13:50:00,
2013-11-27 07:55:00,8.8,6.0,30.59,NNW,336,0.0,0.0,88,0.00,,---,0.00,VWS V14.01,2013-11-27 13:55:00,
2013-11-27 08:00:00,8.9,6.1,30.59,NNW,336,0.0,0.0,88,0.00,,---,0.00,VWS V14.01,2013-11-27 14:00:00,
2013-11-27 08:05:00,9.0,6.2,30.59,NNW,336,0.0,0.0,88,0.00,,---,0.00,VWS V14.01,2013-11-27 14:05:00,
2013-11-27 08:10:00,9.1,6.3,30.59,NNW,336,0.0,0.0,88,0.00,,---,0.00,VWS V14.01,2013-11-27 14:10:00,
2013-11-27 08:15:00,9.2,6.6,30.60,NNW,336,0.0,0.0,89,0.00,,---,0.00,VWS V14.01,2013-11-27 14:15:00,
2013-11-27 08:20:00,9.4,6.8,30.60,NNW,336,0.0,0.0,89,0.00,,---,0.00,VWS V14.01,2013-11-27 14:20:00,
2013-11-27 08:25:00,9.6,6.8,30.60,NNW,336,0.0,0.0,88,0.00,,---,0.00,VWS V14.01,2013-11-27 14:25:00,
2013-11-27 08:30:00,9.8,7.2,30.60,NNW,336,0.0,0.0,89,0.00,,---,0.00,VWS V14.01,2013-11-27 14:30:00,
2013-11-27 08:35:00,10.1,7.5,30.60,NNW,336,0.0,0.0,89,0.00,,---,0.00,VWS V14.01,2013-11-27 14:35:00,
2013-11-27 08:40:00,10.3,7.7,30.60,NNW,336,0.0,0.0,89,0.00,,---,0.00,VWS V14.01,2013-11-27 14:40:00,
2013-11-27 08:45:00,10.7,8.1,30.60,NNW,336,0.0,0.0,89,0.00,,---,0.00,VWS V14.01,2013-11-27 14:45:00,
2013-11-27 08:50:00,11.0,8.1,30.60,NNW,336,0.0,0.0,88,0.00,,---,0.00,VWS V14.01,2013-11-27 14:50:00,
2013-11-27 08:51:00,11.0,8.1,30.60,NNW,336,0.0,0.0,88,0.00,,---,0.00,VWS V14.01,2013-11-27 14:51:00,
2013-11-27 08:55:00,11.4,8.5,30.60,NNW,336,0.0,2.0,88,0.00,,---,0.00,VWS V14.01,2013-11-27 14:55:00,
2013-11-27 08:56:00,11.5,8.6,30.60,NNW,336,0.0,0.0,88,0.00,,---,0.00,VWS V14.01,2013-11-27 14:56:00,
2013-11-27 09:00:00,11.9,9.0,30.60,NNW,336,0.0,1.0,88,0.00,,---,0.00,VWS V14.01,2013-11-27 15:00:00,
2013-11-27 09:01:00,12.0,9.1,30.59,NNW,336,0.0,0.0,88,0.00,,---,0.00,VWS V14.01,2013-11-27 15:01:00,
2013-11-27 09:05:00,12.4,9.5,30.59,NNW,336,1.0,2.0,88,0.00,,---,0.00,VWS V14.01,2013-11-27 15:05:00,
2013-11-27 09:06:00,12.5,9.6,30.59,NNW,336,0.0,1.0,88,0.00,,---,0.00,VWS V14.01,2013-11-27 15:06:00,
2013-11-27 09:10:00,12.9,10.0,30.59,NNW,336,2.0,2.0,88,0.00,,---,0.00,VWS V14.01,2013-11-27 15:10:00,
2013-11-27 09:11:00,13.0,10.1,30.59,NNW,336,1.0,2.0,88,0.00,,---,0.00,VWS V14.01,2013-11-27 15:11:00,
2013-11-27 09:15:00,13.5,10.4,30.59,NNW,336,0.0,2.0,87,0.00,,---,0.00,VWS V14.01,2013-11-27 15:15:00,
2013-11-27 09:16:00,13.5,10.6,30.59,NNW,336,2.0,2.0,88,0.00,,---,0.00,VWS V14.01,2013-11-27 15:16:00,
2013-11-27 09:20:00,14.0,10.9,30.59,NNW,335,2.0,3.0,87,0.00,,---,0.00,VWS V14.01,2013-11-27 15:20:00,
2013-11-27 09:21:00,14.1,10.9,30.59,NNW,335,0.0,2.0,87,0.00,,---,0.00,VWS V14.01,2013-11-27 15:21:00,
2013-11-27 09:25:00,14.6,11.4,30.58,NW,322,0.0,4.0,87,0.00,,---,0.00,VWS V14.01,2013-11-27 15:25:00,
2013-11-27 09:26:00,14.7,11.3,30.58,SSW,211,1.0,3.0,86,0.00,,---,0.00,VWS V14.01,2013-11-27 15:26:00,
2013-11-27 09:30:00,15.3,11.9,30.58,South,175,3.0,3.0,86,0.00,,---,0.00,VWS V14.01,2013-11-27 15:30:00,
2013-11-27 09:31:00,15.4,12.0,30.58,South,173,2.0,3.0,86,0.00,,---,0.00,VWS V14.01,2013-11-27 15:31:00,
2013-11-27 09:35:00,16.1,12.4,30.58,SSE,167,0.0,5.0,85,0.00,,---,0.00,VWS V14.01,2013-11-27 15:35:00,
2013-11-27 09:36:00,16.3,12.6,30.58,SSE,167,0.0,0.0,85,0.00,,---,0.00,VWS V14.01,2013-11-27 15:36:00,
2013-11-27 09:40:00,16.8,12.8,30.58,South,172,0.0,4.0,84,0.00,,---,0.00,VWS V14.01,2013-11-27 15:40:00,
2013-11-27 09:41:00,17.0,13.0,30.58,South,172,0.0,2.0,84,0.00,,---,0.00,VWS V14.01,2013-11-27 15:41:00,
2013-11-27 09:45:00,17.3,12.8,30.58,South,176,2.0,5.0,82,0.00,,---,0.00,VWS V14.01,2013-11-27 15:45:00,
2013-11-27 09:46:00,17.5,12.9,30.58,South,177,0.0,3.0,82,0.00,,---,0.00,VWS V14.01,2013-11-27 15:46:00,
2013-11-27 09:50:00,17.9,13.1,30.58,South,186,0.0,4.0,81,0.00,,---,0.00,VWS V14.01,2013-11-27 15:50:00,
2013-11-27 09:51:00,17.9,12.8,30.58,South,186,2.0,4.0,80,0.00,,---,0.00,VWS V14.01,2013-11-27 15:51:00,
2013-11-27 09:55:00,18.4,13.3,30.58,South,189,0.0,4.0,80,0.00,,---,0.00,VWS V14.01,2013-11-27 15:55:00,
2013-11-27 09:56:00,18.5,13.4,30.58,South,182,3.0,6.0,80,0.00,,---,0.00,VWS V14.01,2013-11-27 15:56:00,
2013-11-27 10:00:00,19.0,13.3,30.58,SSE,159,1.0,6.0,78,0.00,,---,0.00,VWS V14.01,2013-11-27 16:00:00,
2013-11-27 10:01:00,19.1,13.4,30.58,SSE,160,4.0,4.0,78,0.00,,---,0.00,VWS V14.01,2013-11-27 16:01:00,
2013-11-27 10:05:00,19.6,13.6,30.57,SSW,194,3.0,6.0,77,0.00,,---,0.00,VWS V14.01,2013-11-27 16:05:00,
2013-11-27 10:06:00,19.7,13.4,30.57,SSE,161,2.0,6.0,76,0.00,,---,0.00,VWS V14.01,2013-11-27 16:06:00,
2013-11-27 10:10:00,20.0,13.1,30.57,SSE,165,2.0,10.0,74,0.00,,---,0.00,VWS V14.01,2013-11-27 16:10:00,
2013-11-27 10:11:00,20.2,13.2,30.57,SSW,194,4.0,6.0,74,0.00,,---,0.00,VWS V14.01,2013-11-27 16:11:00,
2013-11-27 10:15:00,20.4,13.4,30.57,SW,226,2.0,9.0,74,0.00,,---,0.00,VWS V14.01,2013-11-27 16:15:00,
2013-11-27 10:16:00,20.4,13.1,30.57,South,190,3.0,5.0,73,0.00,,---,0.00,VWS V14.01,2013-11-27 16:16:00,
2013-11-27 10:20:00,20.6,13.3,30.57,WSW,242,6.0,9.0,73,0.00,,---,0.00,VWS V14.01,2013-11-27 16:20:00,
2013-11-27 10:22:00,20.7,13.4,30.57,SSW,207,3.0,10.0,73,0.00,,---,0.00,VWS V14.01,2013-11-27 16:22:00,
2013-11-27 10:25:00,20.9,13.3,30.57,SSW,203,2.0,10.0,72,0.00,,---,0.00,VWS V14.01,2013-11-27 16:25:00,
2013-11-27 10:27:00,20.9,13.0,30.57,SSW,207,2.0,6.0,71,0.00,,---,0.00,VWS V14.01,2013-11-27 16:27:00,
2013-11-27 10:30:00,21.2,13.3,30.57,South,175,3.0,10.0,71,0.00,,---,0.00,VWS V14.01,2013-11-27 16:30:00,
2013-11-27 10:32:00,21.3,13.1,30.57,SSW,196,0.0,11.0,70,0.00,,---,0.00,VWS V14.01,2013-11-27 16:32:00,
2013-11-27 10:35:00,21.6,13.3,30.57,South,188,4.0,11.0,70,0.00,,---,0.00,VWS V14.01,2013-11-27 16:35:00,
2013-11-27 10:37:00,21.7,13.4,30.57,SSW,196,3.0,6.0,70,0.00,,---,0.00,VWS V14.01,2013-11-27 16:37:00,
2013-11-27 10:40:00,22.0,13.7,30.56,SSW,201,3.0,8.0,70,0.00,,---,0.00,VWS V14.01,2013-11-27 16:40:00,
2013-11-27 10:42:00,22.2,13.9,30.56,SSW,200,3.0,5.0,70,0.00,,---,0.00,VWS V14.01,2013-11-27 16:42:00,
2013-11-27 10:45:00,22.5,14.2,30.56,SW,236,8.0,8.0,70,0.00,,---,0.00,VWS V14.01,2013-11-27 16:45:00,
2013-11-27 10:47:00,22.6,14.0,30.57,SSW,204,3.0,9.0,69,0.00,,---,0.00,VWS V14.01,2013-11-27 16:47:00,
2013-11-27 10:50:00,22.8,14.2,30.56,SSW,196,3.0,9.0,69,0.00,,---,0.00,VWS V14.01,2013-11-27 16:50:00,
2013-11-27 10:52:00,22.9,13.6,30.56,SSW,205,5.0,9.0,67,0.00,,---,0.00,VWS V14.01,2013-11-27 16:52:00,
2013-11-27 10:55:00,23.1,13.8,30.56,WSW,244,3.0,9.0,67,0.00,,---,0.00,VWS V14.01,2013-11-27 16:55:00,
2013-11-27 10:57:00,23.1,13.8,30.56,SW,233,7.0,7.0,67,0.00,,---,0.00,VWS V14.01,2013-11-27 16:57:00,
2013-11-27 11:00:00,23.3,13.6,30.56,SW,230,4.0,8.0,66,0.00,,---,0.00,VWS V14.01,2013-11-27 17:00:00,
2013-11-27 11:02:00,23.4,13.7,30.55,WSW,240,2.0,7.0,66,0.00,,---,0.00,VWS V14.01,2013-11-27 17:02:00,
2013-11-27 11:05:00,23.6,13.2,30.56,South,188,3.0,13.0,64,0.00,,---,0.00,VWS V14.01,2013-11-27 17:05:00,
2013-11-27 11:07:00,23.6,13.2,30.55,SSW,209,5.0,13.0,64,0.00,,---,0.00,VWS V14.01,2013-11-27 17:07:00,
2013-11-27 11:10:00,23.7,13.3,30.55,SSW,192,2.0,13.0,64,0.00,,---,0.00,VWS V14.01,2013-11-27 17:10:00,
2013-11-27 11:12:00,23.8,13.4,30.55,SSW,206,5.0,7.0,64,0.00,,---,0.00,VWS V14.01,2013-11-27 17:12:00,
2013-11-27 11:15:00,24.2,14.1,30.54,SW,216,6.0,7.0,65,0.00,,---,0.00,VWS V14.01,2013-11-27 17:15:00,
2013-11-27 11:17:00,24.5,14.1,30.54,WSW,239,7.0,11.0,64,0.00,,---,0.00,VWS V14.01,2013-11-27 17:17:00,
2013-11-27 11:20:00,24.5,13.4,30.53,SW,221,5.0,11.0,62,0.00,,---,0.00,VWS V14.01,2013-11-27 17:20:00,
2013-11-27 11:22:00,24.8,14.4,30.53,SW,223,1.0,6.0,64,0.00,,---,0.00,VWS V14.01,2013-11-27 17:22:00,
2013-11-27 11:25:00,24.9,13.7,30.53,WSW,239,1.0,7.0,62,0.00,,---,0.00,VWS V14.01,2013-11-27 17:25:00,
2013-11-27 11:27:00,25.0,13.8,30.53,SW,236,3.0,6.0,62,0.00,,---,0.00,VWS V14.01,2013-11-27 17:27:00,
2013-11-27 11:30:00,25.1,13.9,30.52,SSW,213,11.0,11.0,62,0.00,,---,0.00,VWS V14.01,2013-11-27 17:30:00,
2013-11-27 11:32:00,25.1,13.2,30.52,SSW,194,6.0,15.0,60,0.00,,---,0.00,VWS V14.01,2013-11-27 17:32:00,
2013-11-27 11:35:00,25.1,13.2,30.52,SW,230,3.0,15.0,60,0.00,,---,0.00,VWS V14.01,2013-11-27 17:35:00,
2013-11-27 11:37:00,25.3,13.8,30.51,SSW,193,4.0,7.0,61,0.00,,---,0.00,VWS V14.01,2013-11-27 17:37:00,
2013-11-27 11:40:00,25.7,14.1,30.52,SW,217,4.0,11.0,61,0.00,,---,0.00,VWS V14.01,2013-11-27 17:40:00,
2013-11-27 11:43:00,25.8,13.9,30.52,SW,230,3.0,7.0,60,0.00,,---,0.00,VWS V14.01,2013-11-27 17:43:00,
2013-11-27 11:45:00,26.0,14.0,30.51,SW,233,3.0,9.0,60,0.00,,---,0.00,VWS V14.01,2013-11-27 17:45:00,
2013-11-27 11:48:00,26.3,14.3,30.51,SSW,205,4.0,11.0,60,0.00,,---,0.00,VWS V14.01,2013-11-27 17:48:00,
2013-11-27 11:50:00,26.3,13.9,30.51,SSW,208,5.0,11.0,59,0.00,,---,0.00,VWS V14.01,2013-11-27 17:50:00,
2013-11-27 11:53:00,26.4,13.6,30.50,South,175,9.0,11.0,58,0.00,,---,0.00,VWS V14.01,2013-11-27 17:53:00,
2013-11-27 11:55:00,26.3,13.6,30.50,SSE,165,11.0,12.0,58,0.00,,---,0.00,VWS V14.01,2013-11-27 17:55:00,
2013-11-27 11:58:00,26.4,14.0,30.50,SSW,211,0.0,11.0,59,0.00,,---,0.00,VWS V14.01,2013-11-27 17:58:00,
2013-11-27 12:00:00,26.5,14.5,30.50,SW,219,2.0,11.0,60,0.00,,---,0.00,VWS V14.01,2013-11-27 18:00:00,
2013-11-27 12:03:00,27.2,14.8,30.49,SW,232,8.0,10.0,59,0.00,,---,0.00,VWS V14.01,2013-11-27 18:03:00,
2013-11-27 12:05:00,27.4,15.0,30.49,SSW,192,6.0,11.0,59,0.00,,---,0.00,VWS V14.01,2013-11-27 18:05:00,
2013-11-27 12:10:00,27.5,14.7,30.49,SW,223,4.0,10.0,58,0.00,,---,0.00,VWS V14.01,2013-11-27 18:10:00,
2013-11-27 12:15:00,27.9,14.6,30.48,SW,236,2.0,7.0,57,0.00,,---,0.00,VWS V14.01,2013-11-27 18:15:00,
2013-11-27 12:20:00,27.6,14.0,30.48,South,190,4.0,7.0,56,0.00,,---,0.00,VWS V14.01,2013-11-27 18:20:00,
2013-11-27 12:25:00,27.1,13.9,30.47,SSW,208,9.0,9.0,57,0.00,,---,0.00,VWS V14.01,2013-11-27 18:25:00,
2013-11-27 12:30:00,27.4,14.6,30.47,SW,226,2.0,11.0,58,0.00,,---,0.00,VWS V14.01,2013-11-27 18:30:00,
2013-11-27 12:31:00,27.4,14.6,30.47,SSW,203,5.0,12.0,58,0.00,,---,0.00,VWS V14.01,2013-11-27 18:31:00,
2013-11-27 12:35:00,27.8,15.0,30.47,South,188,6.0,12.0,58,0.00,,---,0.00,VWS V14.01,2013-11-27 18:35:00,
2013-11-27 12:36:00,27.9,15.1,30.47,South,183,4.0,13.0,58,0.00,,---,0.00,VWS V14.01,2013-11-27 18:36:00,
2013-11-27 12:40:00,28.5,15.6,30.46,South,188,4.0,13.0,58,0.00,,---,0.00,VWS V14.01,2013-11-27 18:40:00,
2013-11-27 12:41:00,28.5,15.2,30.46,SSE,159,11.0,12.0,57,0.00,,---,0.00,VWS V14.01,2013-11-27 18:41:00,
2013-11-27 12:45:00,28.7,15.0,30.45,SSW,198,7.0,14.0,56,0.00,,---,0.00,VWS V14.01,2013-11-27 18:45:00,
2013-11-27 12:46:00,28.8,15.1,30.45,SSW,203,3.0,11.0,56,0.00,,---,0.00,VWS V14.01,2013-11-27 18:46:00,
2013-11-27 12:50:00,29.0,14.9,30.45,SW,232,4.0,14.0,55,0.00,,---,0.00,VWS V14.01,2013-11-27 18:50:00,
2013-11-27 12:51:00,29.1,15.0,30.45,WSW,242,3.0,11.0,55,0.00,,---,0.00,VWS V14.01,2013-11-27 18:51:00,
2013-11-27 12:55:00,29.2,14.2,30.45,SSW,200,8.0,13.0,53,0.00,,---,0.00,VWS V14.01,2013-11-27 18:55:00,
2013-11-27 13:00:00,29.2,14.6,30.44,South,176,4.0,13.0,54,0.00,,---,0.00,VWS V14.01,2013-11-27 19:00:00,
2013-11-27 13:05:00,29.8,15.2,30.44,SSW,194,14.0,16.0,54,0.00,,---,0.00,VWS V14.01,2013-11-27 19:05:00,
2013-11-27 13:10:00,30.2,15.1,30.43,SW,227,1.0,14.0,53,0.00,,---,0.00,VWS V14.01,2013-11-27 19:10:00,
2013-11-27 13:15:00,30.5,15.0,30.43,SSW,195,2.0,15.0,52,0.00,,---,0.00,VWS V14.01,2013-11-27 19:15:00,
2013-11-27 13:17:00,30.5,14.5,30.42,South,188,3.0,13.0,51,0.00,,---,0.00,VWS V14.01,2013-11-27 19:17:00,
2013-11-27 13:19:00,30.5,15.0,30.42,SSW,209,9.0,16.0,52,0.00,,---,0.00,VWS V14.01,2013-11-27 19:19:00,
2013-11-27 13:20:00,30.5,14.5,30.42,SSW,200,5.0,18.0,51,0.00,,---,0.00,VWS V14.01,2013-11-27 19:20:00,
2013-11-27 13:24:00,30.5,14.5,30.42,South,189,8.0,16.0,51,0.00,,---,0.00,VWS V14.01,2013-11-27 19:24:00,
2013-11-27 13:25:00,30.5,14.5,30.41,South,188,4.0,16.0,51,0.00,,---,0.00,VWS V14.01,2013-11-27 19:25:00,
2013-11-27 13:29:00,30.6,14.6,30.41,SSW,208,3.0,12.0,51,0.00,,---,0.00,VWS V14.01,2013-11-27 19:29:00,
2013-11-27 13:30:00,30.6,15.1,30.41,SW,229,7.0,12.0,52,0.00,,---,0.00,VWS V14.01,2013-11-27 19:30:00,
2013-11-27 13:34:00,31.4,15.4,30.41,SSE,154,4.0,11.0,51,0.00,,---,0.00,VWS V14.01,2013-11-27 19:34:00,
2013-11-27 13:35:00,31.5,15.5,30.41,SSE,166,9.0,14.0,51,0.00,,---,0.00,VWS V14.01,2013-11-27 19:35:00,
2013-11-27 13:40:00,31.6,15.6,30.40,SSW,211,10.0,12.0,51,0.00,,---,0.00,VWS V14.01,2013-11-27 19:40:00,
2013-11-27 13:45:00,32.0,15.0,30.40,SSW,193,4.0,12.0,49,0.00,,---,0.00,VWS V14.01,2013-11-27 19:45:00,
2013-11-27 13:50:00,32.3,15.8,30.39,SSW,192,10.0,12.0,50,0.00,,---,0.00,VWS V14.01,2013-11-27 19:50:00,
2013-11-27 13:55:00,32.3,15.3,30.39,WSW,238,6.0,15.0,49,0.00,,---,0.00,VWS V14.01,2013-11-27 19:55:00,
2013-11-27 14:00:00,32.4,14.9,30.39,SW,234,4.0,12.0,48,0.00,,---,0.00,VWS V14.01,2013-11-27 20:00:00,
2013-11-27 14:05:00,32.5,15.0,30.39,SW,232,4.0,18.0,48,0.00,,---,0.00,VWS V14.01,2013-11-27 20:05:00,
2013-11-27 14:10:00,32.4,14.9,30.38,SSE,159,12.0,15.0,48,0.00,,---,0.00,VWS V14.01,2013-11-27 20:10:00,
2013-11-27 14:15:00,32.3,14.3,30.37,South,171,11.0,18.0,47,0.00,,---,0.00,VWS V14.01,2013-11-27 20:15:00,
2013-11-27 14:20:00,32.4,14.4,30.37,South,190,6.0,17.0,47,0.00,,---,0.00,VWS V14.01,2013-11-27 20:20:00,
2013-11-27 14:25:00,32.4,14.9,30.37,SW,215,6.0,19.0,48,0.00,,---,0.00,VWS V14.01,2013-11-27 20:25:00,
2013-11-27 14:30:00,33.0,15.0,30.37,SSW,198,10.0,12.0,47,0.00,,---,0.00,VWS V14.01,2013-11-27 20:30:00,
2013-11-27 14:35:00,33.0,15.0,30.36,SSW,202,4.0,15.0,47,0.00,,---,0.00,VWS V14.01,2013-11-27 20:35:00,
2013-11-27 14:40:00,33.5,15.4,30.36,SW,219,4.0,15.0,47,0.00,,---,0.00,VWS V14.01,2013-11-27 20:40:00,
2013-11-27 14:45:00,33.4,15.4,30.36,SSW,210,4.0,18.0,47,0.00,,---,0.00,VWS V14.01,2013-11-27 20:45:00,
2013-11-27 14:50:00,33.5,15.4,30.35,SSE,150,7.0,16.0,47,0.00,,---,0.00,VWS V14.01,2013-11-27 20:50:00,
2013-11-27 14:55:00,33.4,15.4,30.34,SSW,198,5.0,14.0,47,0.00,,---,0.00,VWS V14.01,2013-11-27 20:55:00,
2013-11-27 15:00:00,33.6,15.0,30.34,SSW,198,4.0,18.0,46,0.00,,---,0.00,VWS V14.01,2013-11-27 21:00:00,
2013-11-27 15:05:00,33.7,15.1,30.34,SSE,155,11.0,14.0,46,0.00,,---,0.00,VWS V14.01,2013-11-27 21:05:00,
2013-11-27 15:10:00,33.6,15.5,30.34,SSW,208,8.0,19.0,47,0.00,,---,0.00,VWS V14.01,2013-11-27 21:10:00,
2013-11-27 15:15:00,33.7,16.6,30.33,SW,232,7.0,18.0,49,0.00,,---,0.00,VWS V14.01,2013-11-27 21:15:00,
2013-11-27 15:20:00,33.4,14.9,30.33,SSE,148,9.0,16.0,46,0.00,,---,0.00,VWS V14.01,2013-11-27 21:20:00,
2013-11-27 15:25:00,33.6,15.0,30.33,SSE,159,9.0,18.0,46,0.00,,---,0.00,VWS V14.01,2013-11-27 21:25:00,
2013-11-27 15:30:00,33.7,15.6,30.33,SW,229,9.0,19.0,47,0.00,,---,0.00,VWS V14.01,2013-11-27 21:30:00,
2013-11-27 15:35:00,33.8,15.2,30.33,SSW,198,9.0,15.0,46,0.00,,---,0.00,VWS V14.01,2013-11-27 21:35:00,
2013-11-27 15:40:00,33.7,15.6,30.32,SSW,208,4.0,19.0,47,0.00,,---,0.00,VWS V14.01,2013-11-27 21:40:00,
2013-11-27 15:45:00,33.7,15.6,30.32,SW,221,3.0,14.0,47,0.00,,---,0.00,VWS V14.01,2013-11-27 21:45:00,
2013-11-27 15:50:00,33.3,15.3,30.32,SSW,209,4.0,17.0,47,0.00,,---,0.00,VWS V14.01,2013-11-27 21:50:00,
2013-11-27 15:55:00,32.7,15.2,30.31,South,181,4.0,14.0,48,0.00,,---,0.00,VWS V14.01,2013-11-27 21:55:00,
2013-11-27 16:00:00,32.4,14.9,30.31,South,173,7.0,17.0,48,0.00,,---,0.00,VWS V14.01,2013-11-27 22:00:00,
2013-11-27 16:05:00,32.2,15.2,30.30,West,260,2.0,24.0,49,0.00,,---,0.00,VWS V14.01,2013-11-27 22:05:00,
2013-11-27 16:10:00,32.2,15.2,30.30,SSW,208,10.0,13.0,49,0.00,,---,0.00,VWS V14.01,2013-11-27 22:10:00,
2013-11-27 16:15:00,32.3,15.3,30.30,South,183,3.0,19.0,49,0.00,,---,0.00,VWS V14.01,2013-11-27 22:15:00,
2013-11-27 16:20:00,32.4,15.4,30.29,SSW,200,9.0,18.0,49,0.00,,---,0.00,VWS V14.01,2013-11-27 22:20:00,
2013-11-27 16:25:00,32.2,15.2,30.29,South,173,14.0,18.0,49,0.00,,---,0.00,VWS V14.01,2013-11-27 22:25:00,
2013-11-27 16:30:00,31.8,14.8,30.29,SSW,203,9.0,14.0,49,0.00,,---,0.00,VWS V14.01,2013-11-27 22:30:00,
2013-11-27 16:35:00,31.6,15.1,30.29,South,173,6.0,15.0,50,0.00,,---,0.00,VWS V14.01,2013-11-27 22:35:00,
2013-11-27 16:40:00,31.5,15.5,30.29,SW,214,10.0,15.0,51,0.00,,---,0.00,VWS V14.01,2013-11-27 22:40:00,
2013-11-27 16:45:00,31.3,15.3,30.29,SSW,194,5.0,14.0,51,0.00,,---,0.00,VWS V14.01,2013-11-27 22:45:00,
2013-11-27 16:50:00,31.2,15.2,30.29,SW,221,13.0,15.0,51,0.00,,---,0.00,VWS V14.01,2013-11-27 22:50:00,
2013-11-27 16:55:00,31.1,15.5,30.28,South,178,4.0,16.0,52,0.00,,---,0.00,VWS V14.01,2013-11-27 22:55:00,
2013-11-27 17:00:00,30.9,15.4,30.28,South,190,4.0,16.0,52,0.00,,---,0.00,VWS V14.01,2013-11-27 23:00:00,
2013-11-27 17:05:00,30.8,15.3,30.28,SW,215,6.0,16.0,52,0.00,,---,0.00,VWS V14.01,2013-11-27 23:05:00,
2013-11-27 17:10:00,30.8,15.3,30.28,SSW,197,6.0,18.0,52,0.00,,---,0.00,VWS V14.01,2013-11-27 23:10:00,
2013-11-27 17:15:00,30.8,15.7,30.27,South,174,7.0,15.0,53,0.00,,---,0.00,VWS V14.01,2013-11-27 23:15:00,
2013-11-27 17:20:00,30.7,15.6,30.27,SSW,199,5.0,18.0,53,0.00,,---,0.00,VWS V14.01,2013-11-27 23:20:00,
2013-11-27 17:25:00,30.8,16.1,30.27,SSW,210,4.0,4.0,54,0.00,,---,0.00,VWS V14.01,2013-11-27 23:25:00,
2013-11-27 17:30:00,30.8,16.1,30.27,SSW,193,11.0,12.0,54,0.00,,---,0.00,VWS V14.01,2013-11-27 23:30:00,
2013-11-27 17:35:00,30.8,16.1,30.27,SSW,192,4.0,6.0,54,0.00,,---,0.00,VWS V14.01,2013-11-27 23:35:00,
2013-11-27 17:40:00,30.8,16.5,30.27,SSW,203,2.0,3.0,55,0.00,,---,0.00,VWS V14.01,2013-11-27 23:40:00,
2013-11-27 17:45:00,30.7,16.5,30.27,SW,215,4.0,5.0,55,0.00,,---,0.00,VWS V14.01,2013-11-27 23:45:00,
2013-11-27 17:50:00,30.7,16.5,30.27,SSW,213,5.0,7.0,55,0.00,,---,0.00,VWS V14.01,2013-11-27 23:50:00,
2013-11-27 17:55:00,30.6,16.8,30.27,SSW,213,5.0,13.0,56,0.00,,---,0.00,VWS V14.01,2013-11-27 23:55:00,
2013-11-27 18:00:00,30.7,16.9,30.27,SSW,202,2.0,13.0,56,0.00,,---,0.00,VWS V14.01,2013-11-28 00:00:00,
2013-11-27 18:01:00,30.7,16.9,30.27,WSW,248,10.0,11.0,56,0.00,,---,0.00,VWS V14.01,2013-11-28 00:01:00,
2013-11-27 18:05:00,30.6,16.8,30.27,SSW,192,1.0,12.0,56,0.00,,---,0.00,VWS V14.01,2013-11-28 00:05:00,
2013-11-27 18:06:00,30.6,16.8,30.27,SSW,194,9.0,9.0,56,0.00,,---,0.00,VWS V14.01,2013-11-28 00:06:00,
2013-11-27 18:10:00,30.6,16.8,30.27,SSW,209,10.0,11.0,56,0.00,,---,0.00,VWS V14.01,2013-11-28 00:10:00,
2013-11-27 18:11:00,30.6,16.8,30.27,SW,223,3.0,10.0,56,0.00,,---,0.00,VWS V14.01,2013-11-28 00:11:00,
2013-11-27 18:15:00,30.6,16.8,30.26,SSW,200,2.0,13.0,56,0.00,,---,0.00,VWS V14.01,2013-11-28 00:15:00,
2013-11-27 18:16:00,30.6,16.8,30.26,WSW,255,10.0,12.0,56,0.00,,---,0.00,VWS V14.01,2013-11-28 00:16:00,
2013-11-27 18:20:00,30.7,16.9,30.26,South,188,2.0,13.0,56,0.00,,---,0.00,VWS V14.01,2013-11-28 00:20:00,
2013-11-27 18:21:00,30.6,17.2,30.26,SW,228,7.0,10.0,57,0.00,,---,0.00,VWS V14.01,2013-11-28 00:21:00,
2013-11-27 18:25:00,30.6,16.8,30.27,NW,323,5.0,14.0,56,0.00,,---,0.00,VWS V14.01,2013-11-28 00:25:00,
2013-11-27 18:26:00,30.6,16.8,30.26,SW,214,10.0,10.0,56,0.00,,---,0.00,VWS V14.01,2013-11-28 00:26:00,
2013-11-27 18:30:00,30.6,17.2,30.27,WSW,242,7.0,13.0,57,0.00,,---,0.00,VWS V14.01,2013-11-28 00:30:00,
2013-11-27 18:31:00,30.5,17.1,30.27,SW,219,5.0,8.0,57,0.00,,---,0.00,VWS V14.01,2013-11-28 00:31:00,
2013-11-27 18:35:00,30.5,17.1,30.27,WSW,240,8.0,15.0,57,0.00,,---,0.00,VWS V14.01,2013-11-28 00:35:00,
2013-11-27 18:36:00,30.5,17.1,30.27,SW,229,2.0,9.0,57,0.00,,---,0.00,VWS V14.01,2013-11-28 00:36:00,
2013-11-27 18:40:00,30.4,17.0,30.27,SSW,211,3.0,13.0,57,0.00,,---,0.00,VWS V14.01,2013-11-28 00:40:00,
2013-11-27 18:41:00,30.4,17.0,30.27,SW,215,3.0,4.0,57,0.00,,---,0.00,VWS V14.01,2013-11-28 00:41:00,
2013-11-27 18:45:00,30.3,16.9,30.27,SSW,200,9.0,13.0,57,0.00,,---,0.00,VWS V14.01,2013-11-28 00:45:00,
2013-11-27 18:46:00,30.3,17.3,30.27,SW,215,4.0,11.0,58,0.00,,---,0.00,VWS V14.01,2013-11-28 00:46:00,
2013-11-27 18:50:00,30.4,17.4,30.27,SW,236,4.0,15.0,58,0.00,,---,0.00,VWS V14.01,2013-11-28 00:50:00,
2013-11-27 18:51:00,30.3,17.3,30.27,SW,219,2.0,9.0,58,0.00,,---,0.00,VWS V14.01,2013-11-28 00:51:00,
2013-11-27 18:55:00,30.3,17.3,30.27,SW,232,5.0,14.0,58,0.00,,---,0.00,VWS V14.01,2013-11-28 00:55:00,
2013-11-27 18:56:00,30.4,17.4,30.27,SW,232,4.0,7.0,58,0.00,,---,0.00,VWS V14.01,2013-11-28 00:56:00,
2013-11-27 19:00:00,30.4,17.4,30.27,SSW,213,3.0,10.0,58,0.00,,---,0.00,VWS V14.01,2013-11-28 01:00:00,
2013-11-27 19:01:00,30.4,17.4,30.27,SSW,198,4.0,9.0,58,0.00,,---,0.00,VWS V14.01,2013-11-28 01:01:00,
2013-11-27 19:05:00,30.4,17.4,30.27,SW,234,5.0,12.0,58,0.00,,---,0.00,VWS V14.01,2013-11-28 01:05:00,
2013-11-27 19:06:00,30.4,17.4,30.27,SW,233,3.0,11.0,58,0.00,,---,0.00,VWS V14.01,2013-11-28 01:06:00,
2013-11-27 19:10:00,30.4,17.4,30.27,SSW,207,2.0,11.0,58,0.00,,---,0.00,VWS V14.01,2013-11-28 01:10:00,
2013-11-27 19:11:00,30.5,17.5,30.27,WSW,240,3.0,11.0,58,0.00,,---,0.00,VWS V14.01,2013-11-28 01:11:00,
2013-11-27 19:15:00,30.6,17.6,30.27,SW,234,5.0,11.0,58,0.00,,---,0.00,VWS V14.01,2013-11-28 01:15:00,
2013-11-27 19:16:00,30.6,17.6,30.27,SW,223,5.0,6.0,58,0.00,,---,0.00,VWS V14.01,2013-11-28 01:16:00,
2013-11-27 19:20:00,30.6,17.6,30.26,SW,222,5.0,7.0,58,0.00,,---,0.00,VWS V14.01,2013-11-28 01:20:00,
2013-11-27 19:21:00,30.6,17.6,30.26,SW,234,9.0,12.0,58,0.00,,---,0.00,VWS V14.01,2013-11-28 01:21:00,
2013-11-27 19:25:00,30.7,17.7,30.26,SSW,200,6.0,12.0,58,0.00,,---,0.00,VWS V14.01,2013-11-28 01:25:00,
2013-11-27 19:26:00,30.7,17.7,30.26,WSW,242,3.0,10.0,58,0.00,,---,0.00,VWS V14.01,2013-11-28 01:26:00,
2013-11-27 19:30:00,30.7,17.7,30.26,SW,230,5.0,12.0,58,0.00,,---,0.00,VWS V14.01,2013-11-28 01:30:00,
2013-11-27 19:32:00,30.8,17.8,30.26,SW,236,6.0,12.0,58,0.00,,---,0.00,VWS V14.01,2013-11-28 01:32:00,
2013-11-27 19:35:00,30.8,17.8,30.26,SW,233,3.0,12.0,58,0.00,,---,0.00,VWS V14.01,2013-11-28 01:35:00,
2013-11-27 19:37:00,30.8,17.8,30.25,SW,217,3.0,13.0,58,0.00,,---,0.00,VWS V14.01,2013-11-28 01:37:00,
2013-11-27 19:40:00,30.7,17.7,30.25,SSW,211,3.0,13.0,58,0.00,,---,0.00,VWS V14.01,2013-11-28 01:40:00,
2013-11-27 19:42:00,30.7,17.7,30.26,SSW,197,4.0,10.0,58,0.00,,---,0.00,VWS V14.01,2013-11-28 01:42:00,
2013-11-27 19:45:00,30.7,17.7,30.25,SSW,193,9.0,11.0,58,0.00,,---,0.00,VWS V14.01,2013-11-28 01:45:00,
2013-11-27 19:47:00,30.6,17.6,30.25,SW,215,4.0,11.0,58,0.00,,---,0.00,VWS V14.01,2013-11-28 01:47:00,
2013-11-27 19:50:00,30.6,17.6,30.25,South,189,2.0,12.0,58,0.00,,---,0.00,VWS V14.01,2013-11-28 01:50:00,
2013-11-27 19:52:00,30.6,17.6,30.25,SSW,207,6.0,6.0,58,0.00,,---,0.00,VWS V14.01,2013-11-28 01:52:00,
2013-11-27 19:55:00,30.5,17.5,30.25,SW,226,5.0,12.0,58,0.00,,---,0.00,VWS V14.01,2013-11-28 01:55:00,
2013-11-27 19:57:00,30.4,17.4,30.25,WSW,240,7.0,12.0,58,0.00,,---,0.00,VWS V14.01,2013-11-28 01:57:00,
2013-11-27 20:00:00,30.4,17.4,30.25,SW,224,7.0,15.0,58,0.00,,---,0.00,VWS V14.01,2013-11-28 02:00:00,
2013-11-27 20:02:00,30.4,17.4,30.25,SW,222,5.0,14.0,58,0.00,,---,0.00,VWS V14.01,2013-11-28 02:02:00,
2013-11-27 20:05:00,30.4,17.0,30.24,WSW,237,5.0,14.0,57,0.00,,---,0.00,VWS V14.01,2013-11-28 02:05:00,
2013-11-27 20:07:00,30.3,17.3,30.25,SW,214,3.0,9.0,58,0.00,,---,0.00,VWS V14.01,2013-11-28 02:07:00,
2013-11-27 20:10:00,30.3,17.3,30.24,SSW,200,9.0,14.0,58,0.00,,---,0.00,VWS V14.01,2013-11-28 02:10:00,
2013-11-27 20:12:00,30.3,17.3,30.24,SW,220,6.0,10.0,58,0.00,,---,0.00,VWS V14.01,2013-11-28 02:12:00,
2013-11-27 20:15:00,30.4,17.4,30.24,SSW,197,2.0,16.0,58,0.00,,---,0.00,VWS V14.01,2013-11-28 02:15:00,
2013-11-27 20:17:00,30.3,17.3,30.24,SSW,202,2.0,10.0,58,0.00,,---,0.00,VWS V14.01,2013-11-28 02:17:00,
2013-11-27 20:20:00,30.3,17.3,30.24,SSW,212,3.0,13.0,58,0.00,,---,0.00,VWS V14.01,2013-11-28 02:20:00,
2013-11-27 20:22:00,30.3,17.3,30.23,SSW,200,6.0,10.0,58,0.00,,---,0.00,VWS V14.01,2013-11-28 02:22:00,
2013-11-27 20:25:00,30.3,17.3,30.24,SSW,211,2.0,10.0,58,0.00,,---,0.00,VWS V14.01,2013-11-28 02:25:00,
2013-11-27 20:27:00,30.3,17.3,30.24,SW,215,4.0,7.0,58,0.00,,---,0.00,VWS V14.01,2013-11-28 02:27:00,
2013-11-27 20:30:00,30.3,17.3,30.23,SW,232,6.0,11.0,58,0.00,,---,0.00,VWS V14.01,2013-11-28 02:30:00,
2013-11-27 20:32:00,30.3,17.3,30.23,SSW,195,4.0,7.0,58,0.00,,---,0.00,VWS V14.01,2013-11-28 02:32:00,
2013-11-27 20:35:00,30.2,17.2,30.23,SW,221,2.0,12.0,58,0.00,,---,0.00,VWS V14.01,2013-11-28 02:35:00,
2013-11-27 20:37:00,30.2,17.2,30.23,South,187,3.0,9.0,58,0.00,,---,0.00,VWS V14.01,2013-11-28 02:37:00,
2013-11-27 20:40:00,30.2,17.2,30.23,SSW,200,3.0,15.0,58,0.00,,---,0.00,VWS V14.01,2013-11-28 02:40:00,
2013-11-27 20:42:00,30.2,17.2,30.23,SSW,202,5.0,12.0,58,0.00,,---,0.00,VWS V14.01,2013-11-28 02:42:00,
2013-11-27 20:45:00,30.2,17.2,30.23,WSW,246,10.0,12.0,58,0.00,,---,0.00,VWS V14.01,2013-11-28 02:45:00,
2013-11-27 20:48:00,30.2,17.2,30.23,SW,229,2.0,10.0,58,0.00,,---,0.00,VWS V14.01,2013-11-28 02:48:00,
2013-11-27 20:50:00,30.1,17.1,30.23,SW,221,3.0,10.0,58,0.00,,---,0.00,VWS V14.01,2013-11-28 02:50:00,
2013-11-27 20:53:00,30.0,17.0,30.23,SSW,207,4.0,14.0,58,0.00,,---,0.00,VWS V14.01,2013-11-28 02:53:00,
2013-11-27 20:55:00,30.0,17.4,30.23,SW,227,3.0,16.0,59,0.00,,---,0.00,VWS V14.01,2013-11-28 02:55:00,
2013-11-27 20:58:00,29.9,17.3,30.24,SSW,209,2.0,10.0,59,0.00,,---,0.00,VWS V14.01,2013-11-28 02:58:00,
2013-11-27 21:00:00,29.9,17.3,30.24,SSW,201,4.0,10.0,59,0.00,,---,0.00,VWS V14.01,2013-11-28 03:00:00,
2013-11-27 21:03:00,29.8,17.2,30.23,SW,230,3.0,12.0,59,0.00,,---,0.00,VWS V14.01,2013-11-28 03:03:00,
2013-11-27 21:05:00,29.8,17.2,30.23,SW,218,1.0,12.0,59,0.00,,---,0.00,VWS V14.01,2013-11-28 03:05:00,
2013-11-27 21:08:00,29.7,17.1,30.23,SW,222,5.0,9.0,59,0.00,,---,0.00,VWS V14.01,2013-11-28 03:08:00,
2013-11-27 21:10:00,29.7,17.1,30.23,SW,217,2.0,9.0,59,0.00,,---,0.00,VWS V14.01,2013-11-28 03:10:00,
2013-11-27 21:13:00,29.7,17.5,30.23,SW,222,4.0,10.0,60,0.00,,---,0.00,VWS V14.01,2013-11-28 03:13:00,
2013-11-27 21:15:00,29.7,17.5,30.23,SSW,198,5.0,12.0,60,0.00,,---,0.00,VWS V14.01,2013-11-28 03:15:00,
2013-11-27 21:18:00,29.7,17.5,30.23,WSW,244,2.0,11.0,60,0.00,,---,0.00,VWS V14.01,2013-11-28 03:18:00,
2013-11-27 21:20:00,29.6,17.4,30.23,SW,219,2.0,11.0,60,0.00,,---,0.00,VWS V14.01,2013-11-28 03:20:00,
2013-11-27 21:23:00,29.6,17.4,30.24,SW,227,3.0,7.0,60,0.00,,---,0.00,VWS V14.01,2013-11-28 03:23:00,
2013-11-27 21:25:00,29.5,17.3,30.24,SW,224,1.0,7.0,60,0.00,,---,0.00,VWS V14.01,2013-11-28 03:25:00,
2013-11-27 21:28:00,29.4,17.2,30.24,SW,229,2.0,6.0,60,0.00,,---,0.00,VWS V14.01,2013-11-28 03:28:00,
2013-11-27 21:30:00,29.3,17.1,30.23,SW,227,3.0,6.0,60,0.00,,---,0.00,VWS V14.01,2013-11-28 03:30:00,
2013-11-27 21:33:00,29.3,17.5,30.24,WSW,239,5.0,9.0,61,0.00,,---,0.00,VWS V14.01,2013-11-28 03:33:00,
2013-11-27 21:35:00,29.2,17.4,30.24,WSW,240,5.0,9.0,61,0.00,,---,0.00,VWS V14.01,2013-11-28 03:35:00,
2013-11-27 21:38:00,29.0,17.2,30.24,WSW,244,4.0,7.0,61,0.00,,---,0.00,VWS V14.01,2013-11-28 03:38:00,
2013-11-27 21:40:00,28.9,17.2,30.24,WSW,240,6.0,7.0,61,0.00,,---,0.00,VWS V14.01,2013-11-28 03:40:00,
2013-11-27 21:43:00,28.7,17.3,30.24,WSW,241,2.0,8.0,62,0.00,,---,0.00,VWS V14.01,2013-11-28 03:43:00,
2013-11-27 21:45:00,28.5,17.1,30.24,WSW,237,4.0,8.0,62,0.00,,---,0.00,VWS V14.01,2013-11-28 03:45:00,
2013-11-27 21:48:00,28.4,17.4,30.24,WSW,238,4.0,6.0,63,0.00,,---,0.00,VWS V14.01,2013-11-28 03:48:00,
2013-11-27 21:50:00,28.3,17.3,30.24,SW,231,4.0,6.0,63,0.00,,---,0.00,VWS V14.01,2013-11-28 03:50:00,
2013-11-27 21:53:00,28.3,17.3,30.24,SW,231,3.0,5.0,63,0.00,,---,0.00,VWS V14.01,2013-11-28 03:53:00,
2013-11-27 21:55:00,28.2,17.2,30.24,SW,231,4.0,5.0,63,0.00,,---,0.00,VWS V14.01,2013-11-28 03:55:00,
2013-11-27 21:58:00,28.0,17.0,30.24,SW,235,6.0,6.0,63,0.00,,---,0.00,VWS V14.01,2013-11-28 03:58:00,
2013-11-27 22:00:00,27.9,17.0,30.24,SW,236,5.0,7.0,63,0.00,,---,0.00,VWS V14.01,2013-11-28 04:00:00,
2013-11-27 22:03:00,27.8,17.2,30.24,WSW,245,5.0,8.0,64,0.00,,---,0.00,VWS V14.01,2013-11-28 04:03:00,
2013-11-27 22:05:00,27.7,17.1,30.24,WSW,253,4.0,8.0,64,0.00,,---,0.00,VWS V14.01,2013-11-28 04:05:00,
2013-11-27 22:08:00,27.5,16.9,30.24,WSW,244,6.0,9.0,64,0.00,,---,0.00,VWS V14.01,2013-11-28 04:08:00,
2013-11-27 22:10:00,27.6,17.0,30.24,WSW,243,5.0,9.0,64,0.00,,---,0.00,VWS V14.01,2013-11-28 04:10:00,
2013-11-27 22:13:00,27.5,16.9,30.25,WSW,245,4.0,7.0,64,0.00,,---,0.00,VWS V14.01,2013-11-28 04:13:00,
2013-11-27 22:15:00,27.6,17.0,30.24,WSW,242,6.0,7.0,64,0.00,,---,0.00,VWS V14.01,2013-11-28 04:15:00,
2013-11-27 22:18:00,27.7,17.1,30.24,WSW,240,9.0,10.0,64,0.00,,---,0.00,VWS V14.01,2013-11-28 04:18:00,
2013-11-27 22:20:00,27.6,17.0,30.24,WSW,238,9.0,10.0,64,0.00,,---,0.00,VWS V14.01,2013-11-28 04:20:00,
2013-11-27 22:24:00,27.4,16.8,30.23,WSW,240,10.0,10.0,64,0.00,,---,0.00,VWS V14.01,2013-11-28 04:24:00,
2013-11-27 22:25:00,27.3,17.1,30.24,WSW,239,8.0,10.0,65,0.00,,---,0.00,VWS V14.01,2013-11-28 04:25:00,
2013-11-27 22:29:00,27.2,17.0,30.23,WSW,240,8.0,10.0,65,0.00,,---,0.00,VWS V14.01,2013-11-28 04:29:00,
2013-11-27 22:30:00,27.2,17.0,30.24,WSW,241,10.0,11.0,65,0.00,,---,0.00,VWS V14.01,2013-11-28 04:30:00,
2013-11-27 22:34:00,27.3,17.1,30.24,WSW,240,7.0,10.0,65,0.00,,---,0.00,VWS V14.01,2013-11-28 04:34:00,
2013-11-27 22:35:00,27.3,17.1,30.24,WSW,239,8.0,11.0,65,0.00,,---,0.00,VWS V14.01,2013-11-28 04:35:00,
2013-11-27 22:39:00,27.2,17.0,30.23,WSW,240,7.0,10.0,65,0.00,,---,0.00,VWS V14.01,2013-11-28 04:39:00,
2013-11-27 22:40:00,27.1,17.3,30.23,WSW,239,6.0,10.0,66,0.00,,---,0.00,VWS V14.01,2013-11-28 04:40:00,
2013-11-27 22:44:00,27.1,17.3,30.23,WSW,244,7.0,7.0,66,0.00,,---,0.00,VWS V14.01,2013-11-28 04:44:00,
2013-11-27 22:45:00,27.1,17.3,30.23,WSW,244,6.0,7.0,66,0.00,,---,0.00,VWS V14.01,2013-11-28 04:45:00,
2013-11-27 22:49:00,27.1,17.3,30.24,WSW,240,6.0,7.0,66,0.00,,---,0.00,VWS V14.01,2013-11-28 04:49:00,
2013-11-27 22:50:00,27.2,17.4,30.24,WSW,239,4.0,7.0,66,0.00,,---,0.00,VWS V14.01,2013-11-28 04:50:00,
2013-11-27 22:54:00,27.1,17.3,30.24,WSW,242,3.0,6.0,66,0.00,,---,0.00,VWS V14.01,2013-11-28 04:54:00,
2013-11-27 22:55:00,27.1,17.3,30.24,WSW,242,3.0,6.0,66,0.00,,---,0.00,VWS V14.01,2013-11-28 04:55:00,
2013-11-27 22:59:00,26.9,17.1,30.24,WSW,242,3.0,6.0,66,0.00,,---,0.00,VWS V14.01,2013-11-28 04:59:00,
2013-11-27 23:00:00,27.0,17.2,30.24,WSW,243,2.0,6.0,66,0.00,,---,0.00,VWS V14.01,2013-11-28 05:00:00,
2013-11-27 23:01:00,27.0,17.2,30.24,WSW,244,5.0,6.0,66,0.00,,---,0.00,VWS V14.01,2013-11-28 05:01:00,
2013-11-27 23:02:00,27.0,17.2,30.24,WSW,243,6.0,6.0,66,0.00,,---,0.00,VWS V14.01,2013-11-28 05:02:00,
2013-11-27 23:05:00,27.0,17.5,30.24,WSW,242,0.0,7.0,67,0.00,,---,0.00,VWS V14.01,2013-11-28 05:05:00,
2013-11-27 23:06:00,26.9,17.4,30.24,WSW,242,3.0,3.0,67,0.00,,---,0.00,VWS V14.01,2013-11-28 05:06:00,
2013-11-27 23:10:00,26.9,17.4,30.25,WSW,243,4.0,4.0,67,0.00,,---,0.00,VWS V14.01,2013-11-28 05:10:00,
2013-11-27 23:11:00,26.9,17.4,30.24,WSW,240,5.0,6.0,67,0.00,,---,0.00,VWS V14.01,2013-11-28 05:11:00,
2013-11-27 23:15:00,27.5,18.3,30.24,WSW,247,4.0,9.0,68,0.00,,---,0.00,VWS V14.01,2013-11-28 05:15:00,
2013-11-27 23:16:00,27.7,18.5,30.24,WSW,246,5.0,5.0,68,0.00,,---,0.00,VWS V14.01,2013-11-28 05:16:00,
2013-11-27 23:20:00,28.1,18.6,30.25,WSW,256,2.0,6.0,67,0.00,,---,0.00,VWS V14.01,2013-11-28 05:20:00,
2013-11-27 23:21:00,28.2,18.7,30.25,WSW,256,2.0,2.0,67,0.00,,---,0.00,VWS V14.01,2013-11-28 05:21:00,
2013-11-27 23:25:00,28.3,18.8,30.25,WSW,256,0.0,5.0,67,0.00,,---,0.00,VWS V14.01,2013-11-28 05:25:00,
2013-11-27 23:26:00,28.3,18.4,30.25,WSW,256,1.0,4.0,66,0.00,,---,0.00,VWS V14.01,2013-11-28 05:26:00,
2013-11-27 23:30:00,28.4,18.9,30.25,West,259,2.0,5.0,67,0.00,,---,0.00,VWS V14.01,2013-11-28 05:30:00,
2013-11-27 23:31:00,28.5,19.0,30.25,West,259,2.0,3.0,67,0.00,,---,0.00,VWS V14.01,2013-11-28 05:31:00,
2013-11-27 23:35:00,28.4,18.9,30.25,West,259,0.0,3.0,67,0.00,,---,0.00,VWS V14.01,2013-11-28 05:35:00,
2013-11-27 23:36:00,28.4,18.9,30.26,West,259,0.0,2.0,67,0.00,,---,0.00,VWS V14.01,2013-11-28 05:36:00,
2013-11-27 23:40:00,28.6,19.4,30.26,West,259,1.0,4.0,68,0.00,,---,0.00,VWS V14.01,2013-11-28 05:40:00,
2013-11-27 23:41:00,28.6,19.4,30.26,West,259,0.0,2.0,68,0.00,,---,0.00,VWS V14.01,2013-11-28 05:41:00,
2013-11-27 23:45:00,28.7,19.5,30.26,West,259,0.0,3.0,68,0.00,,---,0.00,VWS V14.01,2013-11-28 05:45:00,
2013-11-27 23:46:00,28.7,19.5,30.26,West,259,0.0,3.0,68,0.00,,---,0.00,VWS V14.01,2013-11-28 05:46:00,
2013-11-27 23:50:00,28.8,19.6,30.26,West,259,0.0,3.0,68,0.00,,---,0.00,VWS V14.01,2013-11-28 05:50:00,
2013-11-27 23:51:00,28.8,19.6,30.26,West,259,1.0,2.0,68,0.00,,---,0.00,VWS V14.01,2013-11-28 05:51:00,
2013-11-27 23:55:00,28.9,19.7,30.26,West,259,0.0,4.0,68,0.00,,---,0.00,VWS V14.01,2013-11-28 05:55:00,
2013-11-27 23:56:00,28.9,19.7,30.26,West,259,0.0,0.0,68,0.00,,---,0.00,VWS V14.01,2013-11-28 05:56:00,